Weather Roundup
Issued by NWS

Home | Current Version | Previous Version | Graphics & Text | Print | Product List | Glossary Off
Versions: 1 2 3 4 5 6 7 8 9 10 11 12 13 14 15 16 17 18 19 20 21 22 23 24 25 26 27 28 29 30 31 32 33 34 35 36 37 38 39 40 41 42 43 44 45 46 47 48 49 50

025
NZUS93 KARX 110110
HRRWXR

CURRENT HOURLY OBSERVATIONS ACROSS
MUCH OF THE UPPER MISSISSIPPI VALLEY
NATIONAL WEATHER SERVICE LA CROSSE WI
700 PM CST SUN DEC 10 2017


...SOUTHEAST MINNESOTA...


CITY           SKY/WX    TMP DP  RH WIND       PRES   REMARKS
ROCHESTER      CLOUDY    26  21  81 NW7       30.04S WCI  18
ROCHESTER/MAYO CLOUDY    28  21  75 NW5       30.05S WCI  23
WINONA         CLOUDY    30  23  74 CALM      30.08S
AUSTIN         CLOUDY    25  21  86 CALM      30.06R
ALBERT LEA     CLOUDY    27  21  80 CALM      30.06R
DODGE CENTER   PTCLDY    25  19  80 W5        30.05S WCI  19
PRESTON        CLOUDY    26  20  78 NW9       30.05S WCI  17
OWATONNA       NOT AVBL
FARIBAULT      CLOUDY    19  18  93 CALM      30.05F
$$

...ELSEWHERE IN MINNESOTA...


CITY           SKY/WX    TMP DP  RH WIND       PRES   REMARKS
MINNEAPOLIS    CLOUDY    25  20  81 CALM      30.05S
INTNL FALLS    CLOUDY     5   2  87 S3        29.95F
DULUTH         CLOUDY    13   9  84 NW8       29.97F WCI   2
RED WING       CLEAR     21  16  79 CALM      30.05S
REDWOOD FALLS  CLOUDY    34  23  64 CALM      30.03F
MANKATO        CLOUDY    28  24  85 S5        30.05S WCI  23
WORTHINGTON    CLOUDY    33  28  81 SW6       30.04F WCI  28
FAIRMONT       CLOUDY    32  26  78 CALM      30.06S
$$

...SOUTHWEST WISCONSIN...


CITY           SKY/WX    TMP DP  RH WIND       PRES   REMARKS
LA CROSSE      CLOUDY    27  19  72 N6        30.07F WCI  20
PRAIRIE DU CHI CLOUDY    25  19  77 CALM      30.09R
BOSCOBEL       CLOUDY    29  20  69 N3        30.09R
LONE ROCK      CLOUDY    28  21  75 NW6       30.08R WCI  22
PLATTEVILLE    MOCLDY    27  23  84 NW7       30.06S WCI  19
FORT MC COY    CLOUDY    25  20  80 CALM      30.07S
CAMP DOUGLAS   CLOUDY    25  17  72 NW3       30.05S
MAUSTON-NEW LI CLOUDY    26  19  73 NW6       30.05S WCI  20
VIROQUA        CLOUDY    25  21  85 NW7       30.04S WCI  17
WIS DELLS      CLOUDY    26  18  69 NW7       30.05S WCI  19
$$

...ELSEWHERE IN WISCONSIN...


CITY           SKY/WX    TMP DP  RH WIND       PRES   REMARKS
MILWAUKEE      CLOUDY    28  19  69 NW9       30.04R WCI  19
MADISON        CLOUDY    27  18  69 NW9       30.05R WCI  18
GREEN BAY      CLOUDY    25  17  72 NW7       30.04R WCI  17
EAU CLAIRE     CLOUDY    19  16  88 CALM      30.04F
BLACK RVR FLS  CLOUDY    25  19  78 CALM      30.05F
MEDFORD        CLOUDY    19  13  74 N6        30.00S WCI  11
WAUSAU         CLOUDY    21  12  68 N10       30.01R WCI  10
WIS RAPIDS     CLOUDY    24  15  68 NW6       30.05R WCI  17
MARSHFIELD     CLOUDY    22  15  75 NW8       30.01S WCI  12
RICE LAKE      CLEAR     14  13  93 CALM      30.04S
$$

...NORTHEAST IOWA...


CITY           SKY/WX    TMP DP  RH WIND       PRES   REMARKS
WATERLOO       MOCLDY    26  19  74 NW3       30.08R
DUBUQUE        CLEAR     24  19  81 CALM      30.06R
DECORAH        CLOUDY    27  21  80 CALM      30.05R
MASON CITY     CLOUDY    28  21  75 W3        30.07S
CHARLES CITY   CLOUDY    27  23  86 N6        30.07S WCI  20
OELWEIN        CLOUDY    27  23  86 N6        30.07S WCI  20
$$

...ELSEWHERE IN IOWA...


CITY           SKY/WX    TMP DP  RH WIND       PRES   REMARKS
DES MOINES     PTCLDY    40  25  55 NW3       30.09S
IOWA CITY      CLEAR     27  20  75 CALM      30.10R
FORT DODGE     CLOUDY    32  23  69 SW3       30.08S
MARSHALLTOWN   CLOUDY    29  20  69 W5        30.07S WCI  24
CEDAR RAPIDS   CLEAR     27  21  78 CALM      30.07R
$$

...NORTHERN ILLINOIS...


CITY           SKY/WX    TMP DP  RH WIND       PRES   REMARKS
CHICAGO-OHARE  MOCLDY    30  19  63 NW9       30.05R WCI  22
CHICAGO-MIDWAY CLOUDY    31  21  66 N13       30.05R WCI  21
MOLINE         CLEAR     32  22  66 NW7       30.08R WCI  26
ROCKFORD       CLOUDY    29  19  66 NW10      30.08R WCI  20
PEORIA         CLEAR     32  22  66 CALM      30.09R
$$

NOTE: "FAIR" INDICATES FEW OR NO CLOUDS BELOW 12,000 FEET WITH NO
SIGNIFICANT WEATHER AND/OR OBSTRUCTIONS TO VISIBILITY. WIND
SPEEDS ARE IN MILES-PER-HOUR.




USA.gov is the U.S. government's official web portal to all federal, state and local government web resources and services.